Home > Weather > Rapid City > Past weeks

Flag for USA Past Weather in Rapid City, South Dakota, USA — Yesterday and Last 2 Weeks

Now
81 °F

Sunny.


Feels Like: 80 °F
Forecast: 55 / 83 °F
Wind: 8 mph from Southeast

Location: Ellsworth Air Force Base

Current Time: Jun 27, 2016 at 12:40:04 PM

Latest Report: Jun 27, 2016 at 11:58 AM


Visibility: 10 mi

Pressure: 30.24 "Hg (27.05 "Hg at 977m altitude)

Humidity: 31%

Dew Point: 47 °F

Location of Rapid CityLocation

Past Weather in Rapid City — Graph

°F

Rapid City Temperature Yesterday

Maximum temperature yesterday: 87 °F (at 5:58 PM)
Minimum temperature yesterday: 52 °F (at 5:58 AM)
Average temperature yesterday: 73 °F

High & Low Weather Summary for the Past Weeks

 TemperatureHumidityPressure
High99 °F (Jun 24, 3:58 PM)100% (Jun 13, 7:58 PM)30.35 "Hg (Jun 13, 7:58 PM)
Low52 °F (Jun 26, 5:58 AM)10% (Jun 16, 2:58 PM)29.60 "Hg (Jun 24, 11:58 PM)
Average74 °F51%29.93 "Hg
* Reported Jun 12 10:58 AM — Jun 27 10:58 AM, Rapid City, Weather by CustomWeather, © 2016

Note: Actual official high and low records may vary slightly from our data, if they occured in-between our weather recording intervals... More about our weather records

Advertising

Rapid City Weather History for the Previous 24 Hours

Scroll right to see more
 ConditionsComfort  
Time TempWeatherWind HumidityBarometerVisibility
10:58 AM
Mon, Jun 27
78 °FSunny.2 mph35%30.25 "Hg10 mi
9:58 AM75 °FSunny.3 mph41%30.25 "Hg10 mi
8:58 AM71 °FPassing clouds.9 mph50%30.27 "Hg10 mi
7:58 AM68 °FSunny.9 mph52%30.26 "Hg10 mi
6:58 AM62 °FSunny.6 mph59%30.26 "Hg10 mi
5:58 AM61 °FSunny.6 mph58%30.25 "Hg10 mi
4:58 AM63 °FClear.9 mph52%30.25 "Hg10 mi
3:58 AM59 °FClear.8 mph59%30.23 "Hg10 mi
2:58 AM67 °FClear.7 mph45%30.21 "Hg10 mi
1:58 AM61 °FClear.6 mph53%30.21 "Hg10 mi
12:58 AM69 °FClear.7 mph38%30.19 "Hg10 mi
11:58 PM
Sun, Jun 26
69 °FClear.7 mph35%30.16 "Hg10 mi
10:58 PM72 °FClear.7 mph31%30.14 "Hg10 mi
9:58 PM76 °FClear.8 mph25%30.12 "Hg10 mi
8:58 PM79 °FClear.8 mph23%30.09 "Hg10 mi
7:58 PM84 °FSunny.10 mph20%30.06 "Hg10 mi
6:58 PM86 °FSunny.8 mph19%30.06 "Hg10 mi
5:58 PM87 °FPassing clouds.9 mph18%30.07 "Hg10 mi
4:58 PM87 °FSunny.1 mph18%30.07 "Hg10 mi
3:58 PM87 °FSunny.5 mph19%30.07 "Hg10 mi
2:58 PM86 °FSunny.2 mph19%30.08 "Hg10 mi
1:58 PM85 °FSunny.7 mph19%30.08 "Hg10 mi
12:58 PM83 °FSunny.6 mph20%30.10 "Hg10 mi
Weather by CustomWeather, © 2016

See weather overviewHow to use our weather pages